Weather History for Branson, MO

Change the Weather History Date:

Monday, March 4, 2013

  Actual Average (KHRO) Record (KHRO)
Temperature  
Mean Temperature 48 °F 45 °F  
Max Temperature 62 °F 56 °F 83 °F (1955)
Min Temperature 35 °F 35 °F 5 °F (1978)
Degree Days  
Heating Degree Days 16 20  
Month to date heating degree days 82  
Since 1 July heating degree days 3254  
Cooling Degree Days 0 0  
Month to date cooling degree days 0  
Year to date cooling degree days 0  
Moisture  
Dew Point 36 °F    
Average Humidity 71    
Maximum Humidity 100    
Minimum Humidity 45    
Precipitation  
Precipitation 0.00 in 0.11 in 1.90 in (1984)
Month to date precipitation 0.41  
Year to date precipitation 5.61  
Snow  
Snow 0.00 in 0.10 in 2.50 in (1965)
Month to date snowfall 0.4  
Since 1 July snowfall 9.6  
Snow Depth -    
Sea Level Pressure  
Sea Level Pressure 29.75 in    
Wind  
Wind Speed 11 mph (ESE)    
Max Wind Speed 15 mph    
Max Gust Speed 18 mph    
Visibility 10 miles    
Events      
T = Trace of Precipitation, MM = Missing Value Source: NWS Daily Summary

Daily Weather History Graph

Daily Weather History Graph

Search for Another Location

Airport:

Trip Planner

Search our weather history database for the weather conditions in past years. The results will help you decide how hot, cold, wet, or windy it might be!

Date:

Astronomy

Mar. 04, 2013 Rise Set
Actual Time 6:38 AM CST 6:10 PM CST
Civil Twilight 6:13 AM CST 6:36 PM CST
Nautical Twilight 5:43 AM CST 7:06 PM CST
Astronomical Twilight 5:13 AM CST 7:36 PM CST
Moon 12:42 AM CST (3/4) 10:59 AM CST (3/4)
Length of Visible Light 12h 23m
Length of Day
11h 31m
Waning Gibbous, 52% of the Moon is Illuminated
Mar 4
Waning Gibbous
Mar 4
Last Quarter
Mar 11
New
Mar 19
First Quarter
Mar 27
Full

Hourly Weather History & Observations

Time (CST) Temp. Windchill Dew Point Humidity Pressure Visibility Wind Dir Wind Speed Gust Speed Precip Events Conditions
12:15 AM 37.4 °F 29.3 °F 26.6 °F 65% 29.85 in 10.0 mi ESE 12.7 mph - N/A   Clear
12:35 AM 39.2 °F 31.6 °F 26.6 °F 61% 29.84 in 10.0 mi ESE 12.7 mph 18.4 mph N/A   Clear
12:55 AM 37.4 °F 28.9 °F 26.6 °F 65% 29.83 in 10.0 mi ESE 13.8 mph - N/A   Clear
1:15 AM 37.4 °F 29.8 °F 26.6 °F 65% 29.82 in 10.0 mi ESE 11.5 mph - N/A   Clear
1:35 AM 37.4 °F 28.9 °F 26.6 °F 65% 29.82 in 10.0 mi ESE 13.8 mph - N/A   Clear
1:55 AM 37.4 °F 28.5 °F 26.6 °F 65% 29.81 in 10.0 mi ESE 15.0 mph - N/A   Clear
2:15 AM 37.4 °F 28.9 °F 26.6 °F 65% 29.80 in 10.0 mi ESE 13.8 mph - N/A   Clear
2:35 AM 37.4 °F 28.5 °F 26.6 °F 65% 29.79 in 10.0 mi ESE 15.0 mph - N/A   Clear
2:55 AM 37.4 °F 28.5 °F 26.6 °F 65% 29.77 in 10.0 mi ESE 15.0 mph - N/A   Clear
3:35 AM 37.4 °F 28.9 °F 26.6 °F 65% 29.75 in 10.0 mi ESE 13.8 mph - N/A   Clear
3:55 AM 37.4 °F 28.9 °F 26.6 °F 65% 29.75 in 10.0 mi ESE 13.8 mph - N/A   Clear
4:15 AM 37.4 °F 28.9 °F 26.6 °F 65% 29.75 in 10.0 mi ESE 13.8 mph - N/A   Clear
4:55 AM 35.6 °F 26.2 °F 26.6 °F 70% 29.74 in 10.0 mi ESE 15.0 mph - N/A   Clear
5:15 AM 35.6 °F 27.5 °F 26.6 °F 70% 29.74 in 10.0 mi ESE 11.5 mph - N/A   Clear
6:47 AM 35.6 °F 27.1 °F 28.4 °F 75% 29.74 in 10.0 mi ESE 12.7 mph - N/A   Overcast
7:48 AM 37.4 °F 29.8 °F 28.4 °F 70% 29.73 in 10.0 mi ESE 11.5 mph - N/A   Mostly Cloudy
8:50 AM 39.2 °F 32.0 °F 30.2 °F 70% 29.74 in 10.0 mi ESE 11.5 mph - N/A   Mostly Cloudy
9:46 AM 44.6 °F 38.4 °F 32.0 °F 61% 29.74 in 10.0 mi ESE 12.7 mph - N/A   Mostly Cloudy
10:51 AM 53.6 °F - 35.6 °F 51% 29.71 in 10.0 mi SE 12.7 mph - N/A   Scattered Clouds
11:45 AM 57.2 °F - 39.2 °F 51% 29.69 in 10.0 mi ESE 10.4 mph - N/A   Scattered Clouds
12:48 PM 60.8 °F - 39.2 °F 45% 29.66 in 10.0 mi SE 10.4 mph 16.1 mph N/A   Scattered Clouds
2:45 PM 62.6 °F - 41.0 °F 45% 29.63 in 10.0 mi SSE 8.1 mph - N/A   Mostly Cloudy
3:45 PM 60.8 °F - 42.8 °F 52% 29.65 in 10.0 mi SSE 11.5 mph - N/A   Mostly Cloudy
4:45 PM 57.2 °F - 42.8 °F 59% 29.67 in 10.0 mi SSE 10.4 mph - N/A   Mostly Cloudy
5:45 PM 57.2 °F - 42.8 °F 59% 29.69 in 10.0 mi South 4.6 mph - N/A   Mostly Cloudy
6:55 PM 53.6 °F - 42.8 °F 67% 29.71 in 10.0 mi SSE 4.6 mph - N/A   Mostly Cloudy
7:45 PM 50.0 °F - 42.8 °F 76% 29.72 in 10.0 mi SE 5.8 mph - N/A   Scattered Clouds
7:55 PM 50.0 °F - 42.8 °F 76% 29.72 in 10.0 mi ESE 5.8 mph - N/A   Partly Cloudy
8:15 PM 50.0 °F - 44.6 °F 82% 29.72 in 10.0 mi ESE 8.1 mph - N/A   Clear
8:35 PM 48.2 °F - 44.6 °F 87% 29.72 in 10.0 mi ESE 6.9 mph - N/A   Partly Cloudy
8:50 PM 48.2 °F - 44.6 °F 87% 29.73 in 10.0 mi East 5.8 mph - N/A   Scattered Clouds
8:55 PM 48.2 °F - 44.6 °F 87% 29.73 in 10.0 mi ESE 6.9 mph - N/A   Partly Cloudy
9:15 PM 48.2 °F - 44.6 °F 87% 29.74 in 10.0 mi East 5.8 mph - N/A   Clear
9:35 PM 48.2 °F - 44.6 °F 87% 29.75 in 10.0 mi East 5.8 mph - N/A   Clear
9:55 PM 46.4 °F 42.4 °F 44.6 °F 93% 29.75 in 10.0 mi ESE 8.1 mph - N/A   Partly Cloudy
10:15 PM 46.4 °F 45.2 °F 42.8 °F 87% 29.75 in 10.0 mi East 3.5 mph - N/A   Clear
10:35 PM 44.6 °F 42.2 °F 42.8 °F 93% 29.76 in 10.0 mi ESE 4.6 mph - N/A   Clear
10:55 PM 44.6 °F - 44.6 °F 100% 29.77 in 10.0 mi Calm Calm - N/A   Clear
11:35 PM 42.8 °F - 41.0 °F 93% 29.78 in 7.0 mi Calm Calm - N/A   Clear
11:55 PM 41.0 °F 37.1 °F 41.0 °F 100% 29.79 in 5.0 mi WNW 5.8 mph - N/A   Clear